Location: Home
(42.5358°N, 72.7383°W)
Time: 15:06:32
(UTC-05:00)

Vanguard 3 - Pass Details

Date: 08 December 2021
Orbit: 508 x 3260 km, 33.3° (Epoch: 20 January)

Event Time Altitude Azimuth Distance (km) Brightness Sun altitude
Rises 07:12:18 0° 277° (W) 7,227 11.4 -0.2°
Reaches altitude 10° 07:17:39 10° 272° (W) 6,123 11.1 0.6°
Maximum altitude 07:34:29 44° 210° (SSW) 3,261 10.3 3.2°
Drops below altitude 10° 07:45:48 10° 143° (SE) 4,190 12.6 4.9°
Sets 07:48:44 0° 137° (SE) 4,851 13.5 5.3°
